Time,TemperatureF,DewpointF,PressureIn,WindDirection,WindDirectionDegrees,WindSpeedMPH,WindSpeedGustMPH,Humidity,HourlyPrecipIn,Conditions,Clouds,dailyrainin,SoftwareType,DateUTC
2013-05-11 00:00:00,36.0,-99.9,29.96,West,260,8.0,-999.0,-999,-99.99,,,-99.99,,2013-05-11 05:00:00,
2013-05-11 00:22:00,36.0,-99.9,29.96,West,260,8.0,-999.0,-999,-99.99,,,-99.99,,2013-05-11 05:22:00,
2013-05-11 00:32:00,36.0,-99.9,29.96,West,260,8.0,-999.0,-999,-99.99,,,-99.99,,2013-05-11 05:32:00,
2013-05-11 00:43:00,36.0,-99.9,29.96,West,260,8.0,-999.0,-999,-99.99,,,-99.99,,2013-05-11 05:43:00,
2013-05-11 00:52:00,36.0,-99.9,29.96,West,260,8.0,-999.0,-999,-99.99,,,-99.99,,2013-05-11 05:52:00,
2013-05-11 01:00:00,35.0,-99.9,29.94,WSW,250,6.0,-999.0,-999,-99.99,,,-99.99,,2013-05-11 06:00:00,
2013-05-11 01:22:00,35.0,-99.9,29.94,WSW,250,6.0,-999.0,-999,-99.99,,,-99.99,,2013-05-11 06:22:00,
2013-05-11 01:32:00,35.0,-99.9,29.94,WSW,250,6.0,-999.0,-999,-99.99,,,-99.99,,2013-05-11 06:32:00,
2013-05-11 01:42:00,35.0,-99.9,29.94,WSW,250,6.0,-999.0,-999,-99.99,,,-99.99,,2013-05-11 06:42:00,
2013-05-11 01:53:00,35.0,-99.9,29.94,WSW,250,6.0,-999.0,-999,-99.99,,,-99.99,,2013-05-11 06:53:00,
2013-05-11 02:00:00,35.0,-99.9,29.92,NW,320,7.0,-999.0,-999,-99.99,,,-99.99,,2013-05-11 07:00:00,
2013-05-11 02:22:00,35.0,-99.9,29.92,NW,320,7.0,-999.0,-999,-99.99,,,-99.99,,2013-05-11 07:22:00,
2013-05-11 02:32:00,35.0,-99.9,29.92,NW,320,7.0,-999.0,-999,-99.99,,,-99.99,,2013-05-11 07:32:00,
2013-05-11 02:42:00,35.0,-99.9,29.92,NW,320,7.0,-999.0,-999,-99.99,,,-99.99,,2013-05-11 07:42:00,
2013-05-11 02:52:00,35.0,-99.9,29.92,NW,320,7.0,-999.0,-999,-99.99,,,-99.99,,2013-05-11 07:52:00,
2013-05-11 03:00:00,35.0,-99.9,29.90,WSW,240,3.0,-999.0,-999,-99.99,,,-99.99,,2013-05-11 08:00:00,
2013-05-11 03:22:00,35.0,-99.9,29.90,WSW,240,3.0,-999.0,-999,-99.99,,,-99.99,,2013-05-11 08:22:00,
2013-05-11 03:32:00,35.0,-99.9,29.90,WSW,240,3.0,-999.0,-999,-99.99,,,-99.99,,2013-05-11 08:32:00,
2013-05-11 03:43:00,35.0,-99.9,29.90,WSW,240,3.0,-999.0,-999,-99.99,,,-99.99,,2013-05-11 08:43:00,
2013-05-11 03:52:00,35.0,-99.9,29.90,WSW,240,3.0,-999.0,-999,-99.99,,,-99.99,,2013-05-11 08:52:00,
2013-05-11 04:00:00,35.0,-99.9,29.87,West,270,2.0,-999.0,-999,-99.99,,,-99.99,,2013-05-11 09:00:00,
2013-05-11 04:22:00,35.0,-99.9,29.87,West,270,2.0,-999.0,-999,-99.99,,,-99.99,,2013-05-11 09:22:00,
2013-05-11 04:33:00,35.0,-99.9,29.87,West,270,2.0,-999.0,-999,-99.99,,,-99.99,,2013-05-11 09:33:00,
2013-05-11 04:43:00,35.0,-99.9,29.87,West,270,2.0,-999.0,-999,-99.99,,,-99.99,,2013-05-11 09:43:00,
2013-05-11 04:53:00,35.0,-99.9,29.87,West,270,2.0,-999.0,-999,-99.99,,,-99.99,,2013-05-11 09:53:00,
2013-05-11 05:00:00,34.0,-99.9,29.89,South,190,1.0,-999.0,-999,-99.99,,,-99.99,,2013-05-11 10:00:00,
2013-05-11 05:23:00,34.0,-99.9,29.89,South,190,1.0,-999.0,-999,-99.99,,,-99.99,,2013-05-11 10:23:00,
2013-05-11 05:33:00,34.0,-99.9,29.89,South,190,1.0,-999.0,-999,-99.99,,,-99.99,,2013-05-11 10:33:00,
2013-05-11 05:42:00,34.0,-99.9,29.89,South,190,1.0,-999.0,-999,-99.99,,,-99.99,,2013-05-11 10:42:00,
2013-05-11 05:53:00,34.0,-99.9,29.89,South,190,1.0,-999.0,-999,-99.99,,,-99.99,,2013-05-11 10:53:00,
2013-05-11 06:00:00,33.0,-99.9,29.85,ENE,70,3.0,-999.0,-999,-99.99,,,-99.99,,2013-05-11 11:00:00,
2013-05-11 06:22:00,33.0,-99.9,29.85,ENE,70,3.0,-999.0,-999,-99.99,,,-99.99,,2013-05-11 11:22:00,
2013-05-11 06:32:00,33.0,-99.9,29.85,ENE,70,3.0,-999.0,-999,-99.99,,,-99.99,,2013-05-11 11:32:00,
2013-05-11 06:42:00,33.0,-99.9,29.85,ENE,70,3.0,-999.0,-999,-99.99,,,-99.99,,2013-05-11 11:42:00,
2013-05-11 06:52:00,33.0,-99.9,29.85,ENE,70,3.0,-999.0,-999,-99.99,,,-99.99,,2013-05-11 11:52:00,
2013-05-11 07:00:00,35.0,-99.9,29.83,South,170,1.0,-999.0,-999,-99.99,,,-99.99,,2013-05-11 12:00:00,
2013-05-11 07:22:00,35.0,-99.9,29.83,South,170,1.0,-999.0,-999,-99.99,,,-99.99,,2013-05-11 12:22:00,
2013-05-11 07:32:00,35.0,-99.9,29.83,South,170,1.0,-999.0,-999,-99.99,,,-99.99,,2013-05-11 12:32:00,
2013-05-11 07:42:00,35.0,-99.9,29.83,South,170,1.0,-999.0,-999,-99.99,,,-99.99,,2013-05-11 12:42:00,
2013-05-11 07:52:00,35.0,-99.9,29.83,South,170,1.0,-999.0,-999,-99.99,,,-99.99,,2013-05-11 12:52:00,
2013-05-11 08:00:00,39.0,-99.9,29.83,NNW,330,3.0,-999.0,-999,-99.99,,,-99.99,,2013-05-11 13:00:00,
2013-05-11 08:22:00,39.0,-99.9,29.83,NNW,330,3.0,-999.0,-999,-99.99,,,-99.99,,2013-05-11 13:22:00,
2013-05-11 08:32:00,39.0,-99.9,29.83,NNW,330,3.0,-999.0,-999,-99.99,,,-99.99,,2013-05-11 13:32:00,
2013-05-11 08:42:00,39.0,-99.9,29.83,NNW,330,3.0,-999.0,-999,-99.99,,,-99.99,,2013-05-11 13:42:00,
2013-05-11 08:52:00,39.0,-99.9,29.83,NNW,330,3.0,-999.0,-999,-99.99,,,-99.99,,2013-05-11 13:52:00,
2013-05-11 09:00:00,41.0,-99.9,29.82,WSW,240,3.0,-999.0,-999,-99.99,,,-99.99,,2013-05-11 14:00:00,
2013-05-11 09:21:00,41.0,-99.9,29.82,WSW,240,3.0,-999.0,-999,-99.99,,,-99.99,,2013-05-11 14:21:00,
2013-05-11 09:32:00,41.0,-99.9,29.82,WSW,240,3.0,-999.0,-999,-99.99,,,-99.99,,2013-05-11 14:32:00,
2013-05-11 09:42:00,41.0,-99.9,29.82,WSW,240,3.0,-999.0,-999,-99.99,,,-99.99,,2013-05-11 14:42:00,
2013-05-11 09:52:00,41.0,-99.9,29.82,WSW,240,3.0,-999.0,-999,-99.99,,,-99.99,,2013-05-11 14:52:00,
2013-05-11 10:00:00,45.0,-99.9,29.80,ENE,60,5.0,-999.0,-999,-99.99,,,-99.99,,2013-05-11 15:00:00,
2013-05-11 10:22:00,45.0,-99.9,29.80,ENE,60,5.0,-999.0,-999,-99.99,,,-99.99,,2013-05-11 15:22:00,
2013-05-11 10:32:00,45.0,-99.9,29.80,ENE,60,5.0,-999.0,-999,-99.99,,,-99.99,,2013-05-11 15:32:00,
2013-05-11 10:43:00,45.0,-99.9,29.80,ENE,60,5.0,-999.0,-999,-99.99,,,-99.99,,2013-05-11 15:43:00,
2013-05-11 10:53:00,45.0,-99.9,29.80,ENE,60,5.0,-999.0,-999,-99.99,,,-99.99,,2013-05-11 15:53:00,
2013-05-11 11:00:00,42.0,-99.9,29.76,South,170,7.0,-999.0,-999,-99.99,,,-99.99,,2013-05-11 16:00:00,
2013-05-11 11:23:00,42.0,-99.9,29.76,South,170,7.0,-999.0,-999,-99.99,,,-99.99,,2013-05-11 16:23:00,
2013-05-11 11:33:00,42.0,-99.9,29.76,South,170,7.0,-999.0,-999,-99.99,,,-99.99,,2013-05-11 16:33:00,
2013-05-11 11:42:00,42.0,-99.9,29.76,South,170,7.0,-999.0,-999,-99.99,,,-99.99,,2013-05-11 16:42:00,
2013-05-11 11:53:00,42.0,-99.9,29.76,South,170,7.0,-999.0,-999,-99.99,,,-99.99,,2013-05-11 16:53:00,
2013-05-11 12:00:00,40.0,-99.9,29.73,East,90,8.0,-999.0,-999,-99.99,,,-99.99,,2013-05-11 17:00:00,
2013-05-11 12:32:00,40.0,-99.9,29.73,East,90,8.0,-999.0,-999,-99.99,,,-99.99,,2013-05-11 17:32:00,
2013-05-11 12:42:00,40.0,-99.9,29.73,East,90,8.0,-999.0,-999,-99.99,,,-99.99,,2013-05-11 17:42:00,
2013-05-11 12:52:00,40.0,-99.9,29.73,East,90,8.0,-999.0,-999,-99.99,,,-99.99,,2013-05-11 17:52:00,
2013-05-11 13:00:00,39.0,-99.9,29.71,East,100,11.0,-999.0,-999,-99.99,,,-99.99,,2013-05-11 18:00:00,
2013-05-11 13:52:00,39.0,-99.9,29.71,East,100,11.0,-999.0,-999,-99.99,,,-99.99,,2013-05-11 18:52:00,
2013-05-11 14:22:00,38.0,-99.9,29.67,ESE,120,11.0,-999.0,-999,-99.99,,,-99.99,,2013-05-11 19:22:00,
2013-05-11 14:32:00,38.0,-99.9,29.67,ESE,120,11.0,-999.0,-999,-99.99,,,-99.99,,2013-05-11 19:32:00,
2013-05-11 15:22:00,39.0,-99.9,29.68,SSE,160,13.0,-999.0,-999,-99.99,,,-99.99,,2013-05-11 20:22:00,
2013-05-11 15:32:00,39.0,-99.9,29.68,SSE,160,13.0,-999.0,-999,-99.99,,,-99.99,,2013-05-11 20:32:00,
2013-05-11 23:00:00,40.0,-99.9,29.83,West,270,23.0,-999.0,-999,-99.99,,,-99.99,,2013-05-12 04:00:00,
2013-05-11 23:23:00,40.0,-99.9,29.83,West,270,23.0,-999.0,-999,-99.99,,,-99.99,,2013-05-12 04:23:00,
2013-05-11 23:33:00,40.0,-99.9,29.83,West,270,23.0,-999.0,-999,-99.99,,,-99.99,,2013-05-12 04:33:00,
2013-05-11 23:43:00,40.0,-99.9,29.83,West,270,23.0,-999.0,-999,-99.99,,,-99.99,,2013-05-12 04:43:00,
2013-05-11 23:52:00,40.0,-99.9,29.83,West,270,23.0,-999.0,-999,-99.99,,,-99.99,,2013-05-12 04:52:00,